Tracking 35331 objects as of 15-Sep-2026
HD Live streaming from Space Station
objects crossing your sky now

NOAA 16 DEB


NOAA 16 DEB is no longer on orbit


NORAD ID: 41407
Int'l Code: 2000-055KL
Launch date: September 21, 2000
Source: United States (US)
Launch site: AIR FORCE WESTERN TEST RANGE (AFWTR)
Decay date: 2022-07-22

Note: This is SATELLITE DEBRIS
Your satellite tracking list
Your tracking list is empty




NASA's NSSDC Master Catalog

Two Line Element Set (TLE):
1 41407U 00055KL  22202.49297351  .17032757  00000-0  74733-1 0  9991
2 41407  98.5567  29.5114 0021678 300.1440  59.7675 15.80351696337530
Source of the keplerian elements: AFSPC